Location: Pedholt
(56.0260°N, 10.2097°E)
Time: 02:46:34
(UTC+00:00)

Transit 2A Rocket - Pass Details

Date: 02 August 2021
Orbit: 586 x 916 km, 66.7° (Epoch: 21 September)

Event Time Altitude Azimuth Distance (km) Brightness Sun altitude
Rises 14:51:28 0° 241° (WSW) 2,915 9.0 35.6°
Reaches altitude 10° 14:53:42 10° 246° (WSW) 2,048 8.6 35.3°
Maximum altitude 14:58:14 54° 324° (NW) 842 5.9 34.7°
Drops below altitude 10° 15:03:15 10° 42° (NE) 2,255 7.1 34.1°
Sets 15:05:48 0° 47° (NE) 3,240 7.8 33.7°
